• en France
  • Liste des pays
  • À 7 jours
  • Température de l'eau
  • Carte satellitaire
  • Carte météo
  • Widgets météo
  • user-avatar
    Se connecter

    Météo par heure à Bouake

    Ce jour, 20 Août, Lundi

    Heure Température Précipitation Vent Pression Humidité
    00:00 +23°C° 0 mm 1 m/s 732 mmHg 97%
    01:00 +23°C° 0,1 mm 1 m/s 732 mmHg 97%
    02:00 +23°C° 0,1 mm 2 m/s 732 mmHg 97%
    03:00 +23°C° 0,1 mm 2 m/s 731 mmHg 98%
    04:00 +23°C° 0,1 mm 1 m/s 731 mmHg 98%
    05:00 +23°C° 0,1 mm 1 m/s 732 mmHg 98%
    06:00 +23°C° 0,1 mm 1 m/s 732 mmHg 98%
    07:00 +24°C° 0 mm 2 m/s 732 mmHg 94%
    08:00 +25°C° 0 mm 2 m/s 732 mmHg 91%
    09:00 +25°C° 0 mm 3 m/s 733 mmHg 87%
    10:00 +26°C° 0,2 mm 3 m/s 733 mmHg 84%
    11:00 +27°C° 0,2 mm 3 m/s 732 mmHg 81%
    12:00 +27°C° 0,2 mm 3 m/s 732 mmHg 78%
    13:00 +28°C° 0,2 mm 3 m/s 731 mmHg 75%
    14:00 +29°C° 0,2 mm 3 m/s 731 mmHg 71%
    15:00 +29°C° 0,2 mm 3 m/s 730 mmHg 68%
    16:00 +29°C° 0 mm 3 m/s 730 mmHg 72%
    17:00 +28°C° 0 mm 2 m/s 730 mmHg 75%
    18:00 +27°C° 0 mm 2 m/s 730 mmHg 79%
    19:00 +26°C° 0 mm 2 m/s 730 mmHg 82%
    20:00 +25°C° 0 mm 2 m/s 731 mmHg 86%
    21:00 +24°C° 0 mm 2 m/s 731 mmHg 89%
    22:00 +24°C° 0,2 mm 2 m/s 732 mmHg 90%
    23:00 +24°C° 0,2 mm 2 m/s 732 mmHg 91%

    Demain, 21 Août, Mardi

    Heure Température Précipitation Vent Pression Humidité
    00:00 +24°C° 0,2 mm 2 m/s 732 mmHg 91%
    01:00 +24°C° 0,1 mm 2 m/s 732 mmHg 92%
    02:00 +23°C° 0,1 mm 2 m/s 731 mmHg 92%
    03:00 +23°C° 0,1 mm 2 m/s 731 mmHg 93%
    04:00 +23°C° 0 mm 2 m/s 731 mmHg 93%
    05:00 +23°C° 0 mm 2 m/s 731 mmHg 93%
    06:00 +23°C° 0 mm 2 m/s 731 mmHg 93%
    07:00 +24°C° 0,1 mm 2 m/s 732 mmHg 90%
    08:00 +24°C° 0,1 mm 2 m/s 732 mmHg 88%
    09:00 +25°C° 0,1 mm 2 m/s 733 mmHg 85%
    10:00 +26°C° 0,3 mm 2 m/s 733 mmHg 82%
    11:00 +27°C° 0,3 mm 2 m/s 733 mmHg 80%
    12:00 +27°C° 0,3 mm 2 m/s 733 mmHg 77%
    13:00 +28°C° 0,8 mm 2 m/s 732 mmHg 77%
    14:00 +28°C° 0,8 mm 2 m/s 731 mmHg 77%
    15:00 +28°C° 0,8 mm 2 m/s 730 mmHg 77%
    16:00 +27°C° 0,4 mm 2 m/s 730 mmHg 80%
    17:00 +27°C° 0,4 mm 2 m/s 730 mmHg 84%
    18:00 +26°C° 0,4 mm 2 m/s 730 mmHg 87%
    19:00 +25°C° 0,7 mm 2 m/s 730 mmHg 89%
    20:00 +25°C° 0,7 mm 1 m/s 731 mmHg 92%
    21:00 +24°C° 0,7 mm 1 m/s 731 mmHg 94%
    22:00 +24°C° 0,4 mm 1 m/s 731 mmHg 95%
    23:00 +23°C° 0,4 mm 1 m/s 731 mmHg 95%

    Après-demain, 22 Août, Mercredi

    Heure Température Précipitation Vent Pression Humidité
    00:00 +23°C° 0,4 mm 1 m/s 731 mmHg 96%
    01:00 +23°C° 0,8 mm 1 m/s 731 mmHg 96%
    02:00 +23°C° 0,8 mm 1 m/s 731 mmHg 96%
    03:00 +23°C° 0,8 mm 2 m/s 730 mmHg 96%
    04:00 +23°C° 0,1 mm 2 m/s 730 mmHg 96%
    05:00 +23°C° 0,1 mm 2 m/s 730 mmHg 96%
    06:00 +23°C° 0,1 mm 2 m/s 730 mmHg 96%
    07:00 +23°C° 0,1 mm 2 m/s 731 mmHg 94%
    08:00 +24°C° 0,1 mm 2 m/s 732 mmHg 92%
    09:00 +25°C° 0,1 mm 2 m/s 733 mmHg 89%
    10:00 +26°C° 0,2 mm 2 m/s 732 mmHg 82%
    11:00 +28°C° 0,2 mm 2 m/s 732 mmHg 75%
    12:00 +29°C° 0,2 mm 2 m/s 732 mmHg 68%
    13:00 +30°C° 0,8 mm 2 m/s 731 mmHg 69%
    14:00 +30°C° 0,8 mm 2 m/s 730 mmHg 70%
    15:00 +30°C° 0,8 mm 2 m/s 729 mmHg 71%
    16:00 +29°C° 0,6 mm 2 m/s 729 mmHg 75%
    17:00 +28°C° 0,6 mm 1 m/s 729 mmHg 79%
    18:00 +27°C° 0,6 mm 1 m/s 729 mmHg 84%
    19:00 +26°C° 0,9 mm 1 m/s 729 mmHg 87%
    20:00 +25°C° 0,9 mm 1 m/s 730 mmHg 90%
    21:00 +24°C° 0,9 mm 1 m/s 731 mmHg 93%
    22:00 +24°C° 0,3 mm 1 m/s 731 mmHg 94%
    23:00 +24°C° 0,3 mm 1 m/s 731 mmHg 94%

    23 Août, Jeudi

    Heure Température Précipitation Vent Pression Humidité
    00:00 +24°C° 0,3 mm 2 m/s 731 mmHg 95%
    01:00 +24°C° 0,3 mm 2 m/s 731 mmHg 96%
    02:00 +23°C° 0,3 mm 2 m/s 730 mmHg 96%
    03:00 +22°C° 0,3 mm 3 m/s 730 mmHg 97%
    04:00 +23°C° 0,2 mm 2 m/s 730 mmHg 97%
    05:00 +23°C° 0,2 mm 2 m/s 730 mmHg 97%
    06:00 +23°C° 0,2 mm 2 m/s 730 mmHg 97%
    07:00 +24°C° 0,1 mm 2 m/s 731 mmHg 95%
    08:00 +24°C° 0,1 mm 2 m/s 732 mmHg 93%
    09:00 +25°C° 0,1 mm 3 m/s 732 mmHg 90%
    10:00 +27°C° 0,2 mm 3 m/s 732 mmHg 83%
    11:00 +28°C° 0,2 mm 2 m/s 731 mmHg 75%
    12:00 +30°C° 0,2 mm 2 m/s 731 mmHg 67%
    13:00 +30°C° 0,8 mm 2 m/s 730 mmHg 67%
    14:00 +30°C° 0,8 mm 2 m/s 729 mmHg 67%
    15:00 +31°C° 0,8 mm 2 m/s 728 mmHg 68%
    16:00 +29°C° 1,7 mm 2 m/s 728 mmHg 75%
    17:00 +28°C° 1,7 mm 2 m/s 728 mmHg 82%
    18:00 +26°C° 1,7 mm 1 m/s 729 mmHg 90%
    19:00 +26°C° 0,8 mm 2 m/s 729 mmHg 91%
    20:00 +25°C° 0,8 mm 2 m/s 730 mmHg 93%
    21:00 +24°C° 0,8 mm 2 m/s 731 mmHg 94%
    22:00 +24°C° 0,6 mm 2 m/s 731 mmHg 95%
    23:00 +24°C° 0,6 mm 2 m/s 731 mmHg 96%

    24 Août, Vendredi

    Heure Température Précipitation Vent Pression Humidité
    00:00 +24°C° 0,6 mm 3 m/s 731 mmHg 96%
    01:00 +23°C° 0,2 mm 2 m/s 730 mmHg 97%
    02:00 +23°C° 0,2 mm 2 m/s 730 mmHg 97%
    03:00 +23°C° 0,2 mm 2 m/s 729 mmHg 97%
    04:00 +23°C° 0,2 mm 2 m/s 729 mmHg 97%
    05:00 +23°C° 0,2 mm 2 m/s 730 mmHg 97%
    06:00 +23°C° 0,2 mm 2 m/s 730 mmHg 97%
    07:00 +24°C° 0,1 mm 2 m/s 730 mmHg 96%
    08:00 +24°C° 0,1 mm 3 m/s 731 mmHg 94%
    09:00 +24°C° 0,1 mm 3 m/s 731 mmHg 93%
    10:00 +25°C° 0,3 mm 3 m/s 731 mmHg 91%
    11:00 +25°C° 0,3 mm 3 m/s 731 mmHg 90%
    12:00 +26°C° 0,3 mm 3 m/s 731 mmHg 88%
    13:00 +26°C° 0,7 mm 3 m/s 730 mmHg 86%
    14:00 +27°C° 0,7 mm 3 m/s 729 mmHg 84%
    15:00 +27°C° 0,7 mm 2 m/s 728 mmHg 82%
    16:00 +27°C° 0,5 mm 2 m/s 728 mmHg 85%
    17:00 +26°C° 0,5 mm 2 m/s 728 mmHg 88%
    18:00 +26°C° 0,5 mm 1 m/s 728 mmHg 91%
    19:00 +25°C° 0,7 mm 1 m/s 729 mmHg 93%
    20:00 +24°C° 0,7 mm 2 m/s 729 mmHg 94%
    21:00 +24°C° 0,7 mm 2 m/s 730 mmHg 96%
    22:00 +24°C° 0,9 mm 2 m/s 730 mmHg 96%
    23:00 +23°C° 0,9 mm 2 m/s 730 mmHg 96%

    25 Août, Samedi

    Heure Température Précipitation Vent Pression Humidité
    00:00 +22°C° 0,9 mm 3 m/s 730 mmHg 97%
    01:00 +22°C° 0,9 mm 3 m/s 730 mmHg 97%
    02:00 +22°C° 0,9 mm 3 m/s 730 mmHg 97%
    03:00 +22°C° 0,9 mm 3 m/s 729 mmHg 97%
    04:00 +23°C° 0,7 mm 2 m/s 730 mmHg 97%
    05:00 +23°C° 0,7 mm 2 m/s 730 mmHg 97%
    06:00 +23°C° 0,7 mm 2 m/s 730 mmHg 97%
    07:00 +23°C° 0,6 mm 2 m/s 731 mmHg 96%
    08:00 +24°C° 0,6 mm 3 m/s 731 mmHg 95%
    09:00 +24°C° 0,6 mm 3 m/s 732 mmHg 94%
    10:00 +24°C° 0,5 mm 3 m/s 731 mmHg 92%
    11:00 +25°C° 0,5 mm 3 m/s 731 mmHg 91%
    12:00 +25°C° 0,5 mm 3 m/s 731 mmHg 89%
    13:00 +26°C° 0,5 mm 3 m/s 730 mmHg 88%
    14:00 +26°C° 0,5 mm 3 m/s 729 mmHg 87%
    15:00 +27°C° 0,5 mm 3 m/s 729 mmHg 86%
    16:00 +26°C° 0,6 mm 3 m/s 729 mmHg 88%
    17:00 +26°C° 0,6 mm 3 m/s 729 mmHg 91%
    18:00 +25°C° 0,6 mm 2 m/s 729 mmHg 93%
    19:00 +24°C° 0,5 mm 2 m/s 730 mmHg 94%
    20:00 +24°C° 0,5 mm 2 m/s 730 mmHg 95%
    21:00 +23°C° 0,5 mm 2 m/s 731 mmHg 96%
    22:00 +23°C° 0 mm 2 m/s 731 mmHg 97%
    23:00 +23°C° 0 mm 2 m/s 731 mmHg 97%
    Voir plus